Tracking 27380 objects as of 5-Jun-2023
HD Live streaming from Space Station
objects crossing your sky now

CZ-2C DEB

Track CZ-2C DEB now!
10-day predictions


NORAD ID: 37770
Int'l Code: 2011-039F
Perigee: 625.0 km
Apogee: 745.8 km
Inclination: 97.9 °
Period: 98.3 minutes
Semi major axis: 7056 km
RCS: 0.0832 m2 (small)
Launch date: July 29, 2011
Source: People's Republic of China (PRC)
Launch site: Jiuquan Satellite Launch Center, China (JSC)

Note: This is SATELLITE DEBRIS
Your satellite tracking list
Your tracking list is empty




NASA's NSSDC Master Catalog

Two Line Element Set (TLE):
1 37770U 11039F   23156.04579385  .00008265  00000-0  14813-2 0  9996
2 37770  97.9233  81.0885 0085657  25.0138 346.5147 14.64631511629424
Source of the keplerian elements: AFSPC